| time (UTC) | temp C | wind direction | speed KPH | gust KPH | rain 1hr cm | rain 24hr cm | rain mn cm | humidity % | barometer mb |
| 20260505021733 | 23 | 68 | 0.0 | 0.0 | 0.00 | 0.00 | 0.46 | 97 | 1015.0 |
| 20260505021233 | 23 | 147 | 1.6 | 3.2 | 0.00 | 0.00 | 0.46 | 97 | 1014.0 |
| 20260505020733 | 23 | 135 | 0.0 | 1.6 | 0.00 | 0.00 | 0.46 | 97 | 1014.0 |
| 20260505020233 | 23 | 72 | 0.0 | 0.0 | 0.00 | 0.00 | 0.46 | 97 | 1014.0 |
| 20260505015733 | 23 | 52 | 0.0 | 1.6 | 0.00 | 0.00 | 0.46 | 97 | 1014.0 |
| 20260505015233 | 23 | 142 | 0.0 | 3.2 | 0.00 | 0.00 | 0.46 | 97 | 1014.0 |
| 20260505014734 | 23 | 40 | 0.0 | 3.2 | 0.00 | 0.00 | 0.46 | 97 | 1014.0 |
| 20260505014233 | 23 | 192 | 1.6 | 4.8 | 0.00 | 0.00 | 0.46 | 97 | 1014.0 |
| 20260505013733 | 23 | 349 | 3.2 | 3.2 | 0.00 | 0.00 | 0.46 | 97 | 1014.0 |
| 20260505013234 | 23 | 139 | 0.0 | 1.6 | 0.00 | 0.00 | 0.46 | 97 | 1014.0 |
| 20260505012733 | 23 | 122 | 0.0 | 1.6 | 0.00 | 0.00 | 0.46 | 97 | 1013.0 |
| 20260505012234 | 23 | 251 | 0.0 | 1.6 | 0.00 | 0.00 | 0.46 | 97 | 1013.0 |
| 20260505011733 | 23 | 258 | 0.0 | 3.2 | 0.00 | 0.00 | 0.46 | 97 | 1013.0 |
| 20260505011233 | 23 | 75 | 0.0 | 1.6 | 0.00 | 0.00 | 0.46 | 97 | 1013.0 |
| 20260505010733 | 23 | 0 | 3.2 | 3.2 | 0.00 | 0.00 | 0.46 | 97 | 1013.0 |
| 20260505010233 | 23 | 29 | 4.8 | 4.8 | 0.00 | 0.00 | 0.46 | 97 | 1013.0 |
| 20260505005733 | 23 | 28 | 3.2 | 3.2 | 0.00 | 0.00 | 0.46 | 97 | 1013.0 |
| 20260505005233 | 23 | 110 | 0.0 | 3.2 | 0.00 | 0.00 | 0.46 | 96 | 1013.0 |
| 20260505004734 | 23 | 147 | 0.0 | 3.2 | 0.00 | 0.00 | 0.46 | 96 | 1013.0 |
| 20260505004233 | 23 | 191 | 0.0 | 1.6 | 0.00 | 0.00 | 0.46 | 96 | 1012.0 |
| 20260505003734 | 23 | 151 | 0.0 | 3.2 | 0.00 | 0.00 | 0.46 | 96 | 1013.0 |
| 20260505003235 | 23 | 161 | 0.0 | 0.0 | 0.00 | 0.00 | 0.46 | 96 | 1013.0 |
| 20260505002733 | 23 | 142 | 0.0 | 0.0 | 0.00 | 0.00 | 0.46 | 96 | 1013.0 |
| 20260505002234 | 23 | 22 | 1.6 | 1.6 | 0.00 | 0.00 | 0.46 | 96 | 1012.0 |
| 20260505001733 | 23 | 27 | 0.0 | 3.2 | 0.00 | 0.00 | 0.46 | 96 | 1012.0 |
| 20260505001233 | 23 | 306 | 1.6 | 3.2 | 0.00 | 0.00 | 0.46 | 96 | 1012.0 |
| 20260505000733 | 23 | 41 | 0.0 | 1.6 | 0.00 | 0.00 | 0.46 | 96 | 1012.0 |
| 20260505000233 | 23 | 198 | 1.6 | 4.8 | 0.00 | 0.00 | 0.46 | 96 | 1012.0 |
| 20260504235735 | 23 | 173 | 1.6 | 3.2 | 0.00 | 0.00 | 0.46 | 95 | 1012.0 |
| 20260504235233 | 23 | 186 | 3.2 | 4.8 | 0.00 | 0.00 | 0.46 | 95 | 1012.0 |
| 20260504234733 | 23 | 153 | 1.6 | 1.6 | 0.00 | 0.00 | 0.46 | 95 | 1012.0 |
| 20260504232736 | 24 | 134 | 1.6 | 4.8 | 0.00 | 0.00 | 0.46 | 94 | 1012.0 |
| 20260504232233 | 24 | 136 | 4.8 | 4.8 | 0.00 | 0.00 | 0.46 | 94 | 1012.0 |
| 20260504231734 | 25 | 115 | 1.6 | 3.2 | 0.00 | 0.00 | 0.46 | 94 | 1012.0 |
| 20260504231233 | 25 | 115 | 0.0 | 3.2 | 0.00 | 0.00 | 0.46 | 94 | 1011.0 |
| 20260504230733 | 25 | 315 | 0.0 | 1.6 | 0.00 | 0.00 | 0.46 | 93 | 1011.0 |
| 20260504230233 | 25 | 295 | 0.0 | 1.6 | 0.00 | 0.00 | 0.46 | 93 | 1011.0 |
| 20260504225734 | 25 | 144 | 1.6 | 1.6 | 0.00 | 0.00 | 0.46 | 93 | 1011.0 |
| 20260504225234 | 25 | 20 | 0.0 | 0.0 | 0.00 | 0.00 | 0.46 | 93 | 1011.0 |
| 20260504224734 | 25 | 35 | 0.0 | 3.2 | 0.00 | 0.00 | 0.46 | 93 | 1011.0 |
| 20260504224233 | 25 | 22 | 1.6 | 3.2 | 0.00 | 0.00 | 0.46 | 93 | 1011.0 |
| 20260504223733 | 25 | 44 | 0.0 | 3.2 | 0.00 | 0.00 | 0.46 | 92 | 1010.0 |
| 20260504223234 | 25 | 346 | 0.0 | 0.0 | 0.00 | 0.00 | 0.46 | 93 | 1010.0 |
| 20260504222733 | 25 | 211 | 3.2 | 3.2 | 0.00 | 0.00 | 0.46 | 92 | 1011.0 |
| 20260504222233 | 25 | 240 | 0.0 | 0.0 | 0.00 | 0.00 | 0.46 | 93 | 1010.0 |
| 20260504221733 | 25 | 221 | 3.2 | 3.2 | 0.00 | 0.00 | 0.46 | 93 | 1010.0 |
| 20260504221233 | 25 | 277 | 1.6 | 1.6 | 0.00 | 0.00 | 0.46 | 93 | 1010.0 |
| 20260504220734 | 25 | 209 | 1.6 | 1.6 | 0.00 | 0.00 | 0.46 | 93 | 1010.0 |
| 20260504220233 | 25 | 240 | 0.0 | 3.2 | 0.00 | 0.00 | 0.46 | 93 | 1010.0 |
| 20260504215733 | 25 | 330 | 1.6 | 1.6 | 0.00 | 0.00 | 0.46 | 93 | 1010.0 |
| 20260504215233 | 25 | 259 | 0.0 | 4.8 | 0.00 | 0.00 | 0.46 | 93 | 1010.0 |
| 20260504214733 | 25 | 205 | 3.2 | 4.8 | 0.00 | 0.00 | 0.46 | 93 | 1010.0 |
| 20260504214233 | 25 | 269 | 0.0 | 0.0 | 0.00 | 0.00 | 0.46 | 93 | 1010.0 |
| 20260504213734 | 25 | 226 | 1.6 | 6.4 | 0.00 | 0.00 | 0.46 | 93 | 1010.0 |
| 20260504213233 | 25 | 267 | 3.2 | 3.2 | 0.00 | 0.00 | 0.46 | 93 | 1010.0 |
| 20260504212733 | 25 | 225 | 3.2 | 6.4 | 0.00 | 0.00 | 0.46 | 93 | 1011.0 |
| 20260504212233 | 25 | 227 | 1.6 | 3.2 | 0.00 | 0.00 | 0.46 | 93 | 1010.0 |
| 20260504211733 | 25 | 203 | 0.0 | 8.0 | 0.00 | 0.00 | 0.46 | 93 | 1011.0 |
| 20260504211235 | 25 | 292 | 1.6 | 6.4 | 0.00 | 0.00 | 0.46 | 94 | 1011.0 |
| 20260504210734 | 25 | 209 | 6.4 | 8.0 | 0.00 | 0.00 | 0.46 | 93 | 1011.0 |
| 20260504210235 | 25 | 204 | 3.2 | 8.0 | 0.00 | 0.00 | 0.46 | 94 | 1011.0 |
| 20260504205733 | 25 | 213 | 4.8 | 6.4 | 0.00 | 0.00 | 0.46 | 94 | 1011.0 |
| 20260504205237 | 25 | 210 | 4.8 | 6.4 | 0.00 | 0.00 | 0.46 | 94 | 1011.0 |
| 20260504204733 | 25 | 221 | 6.4 | 9.7 | 0.00 | 0.00 | 0.46 | 94 | 1011.0 |
| 20260504204233 | 25 | 216 | 3.2 | 4.8 | 0.00 | 0.00 | 0.46 | 94 | 1011.0 |
| 20260504203733 | 25 | 198 | 0.0 | 3.2 | 0.00 | 0.00 | 0.46 | 94 | 1011.0 |
| 20260504203233 | 25 | 230 | 0.0 | 0.0 | 0.00 | 0.00 | 0.46 | 93 | 1011.0 |
| 20260504202734 | 25 | 319 | 1.6 | 4.8 | 0.00 | 0.00 | 0.46 | 93 | 1011.0 |
| 20260504202233 | 26 | 249 | 1.6 | 1.6 | 0.00 | 0.00 | 0.46 | 93 | 1012.0 |
| 20260504201734 | 26 | 256 | 1.6 | 6.4 | 0.00 | 0.00 | 0.46 | 94 | 1012.0 |
| 20260504201233 | 26 | 286 | 6.4 | 6.4 | 0.00 | 0.00 | 0.46 | 94 | 1012.0 |
| 20260504200734 | 26 | 286 | 6.4 | 6.4 | 0.00 | 0.00 | 0.46 | 95 | 1012.0 |
| 20260504200233 | 25 | 286 | 6.4 | 6.4 | 0.00 | 0.00 | 0.46 | 96 | 1012.0 |
| 20260504195734 | 25 | 286 | 6.4 | 6.4 | 0.00 | 0.00 | 0.46 | 96 | 1012.0 |
| 20260504195233 | 25 | 286 | 6.4 | 6.4 | 0.05 | 0.00 | 0.46 | 96 | 1012.0 |
| 20260504194734 | 25 | 136 | 1.6 | 3.2 | 0.23 | 0.00 | 0.46 | 96 | 1012.0 |
| 20260504194233 | 25 | 301 | 3.2 | 4.8 | 0.30 | 0.00 | 0.43 | 96 | 1012.0 |
| 20260504193734 | 25 | 269 | 0.0 | 6.4 | 0.30 | 0.00 | 0.41 | 96 | 1012.0 |
| 20260504193236 | 25 | 181 | 1.6 | 6.4 | 0.30 | 0.00 | 0.38 | 96 | 1013.0 |
| 20260504192733 | 25 | 236 | 3.2 | 4.8 | 0.23 | 0.00 | 0.36 | 96 | 1013.0 |
| 20260504192234 | 25 | 255 | 3.2 | 4.8 | 0.23 | 0.00 | 0.33 | 96 | 1013.0 |
| 20260504191733 | 25 | 338 | 4.8 | 4.8 | 0.18 | 0.00 | 0.33 | 96 | 1013.0 |
| 20260504191233 | 25 | 263 | 3.2 | 6.4 | 0.05 | 0.00 | 0.30 | 96 | 1013.0 |
| 20260504190734 | 25 | 308 | 4.8 | 6.4 | 0.00 | 0.00 | 0.28 | 97 | 1013.0 |
| 20260504190234 | 25 | 301 | 0.0 | 4.8 | 0.00 | 0.00 | 0.28 | 97 | 1013.0 |
| 20260504185734 | 25 | 280 | 0.0 | 3.2 | 0.00 | 0.00 | 0.28 | 97 | 1013.0 |
| 20260504185235 | 25 | 292 | 3.2 | 4.8 | 0.00 | 0.00 | 0.28 | 97 | 1013.0 |
| 20260504184733 | 25 | 317 | 0.0 | 4.8 | 0.00 | 0.00 | 0.28 | 97 | 1014.0 |
| 20260504184233 | 25 | 269 | 0.0 | 3.2 | 0.00 | 0.00 | 0.28 | 97 | 1014.0 |
| 20260504183735 | 25 | 278 | 1.6 | 3.2 | 0.00 | 0.00 | 0.28 | 97 | 1013.0 |
| 20260504183233 | 25 | 346 | 0.0 | 3.2 | 0.00 | 0.00 | 0.28 | 97 | 1014.0 |
| 20260504182734 | 25 | 15 | 4.8 | 4.8 | 0.00 | 0.00 | 0.28 | 97 | 1014.0 |
| 20260504182234 | 25 | 21 | 0.0 | 6.4 | 0.00 | 0.00 | 0.28 | 97 | 1014.0 |
| 20260504181733 | 25 | 10 | 0.0 | 4.8 | 0.05 | 0.00 | 0.28 | 97 | 1014.0 |
| 20260504181234 | 25 | 345 | 1.6 | 6.4 | 0.05 | 0.00 | 0.28 | 97 | 1014.0 |
| 20260504180734 | 25 | 18 | 4.8 | 6.4 | 0.00 | 0.00 | 0.28 | 97 | 1014.0 |
| 20260504180233 | 25 | 358 | 1.6 | 6.4 | 0.00 | 0.00 | 0.28 | 97 | 1014.0 |
| 20260504175733 | 25 | 227 | 0.0 | 4.8 | 0.00 | 0.00 | 0.28 | 97 | 1014.0 |
| 20260504175234 | 25 | 44 | 1.6 | 3.2 | 0.00 | 0.00 | 0.28 | 96 | 1015.0 |
| 20260504174733 | 25 | 5 | 1.6 | 3.2 | 0.00 | 0.00 | 0.28 | 96 | 1014.0 |
| 20260504174233 | 25 | 180 | 3.2 | 3.2 | 0.00 | 0.00 | 0.28 | 96 | 1015.0 |
| 20260504173733 | 25 | 145 | 1.6 | 1.6 | 0.00 | 0.00 | 0.28 | 97 | 1015.0 |
| 20260504173236 | 25 | 30 | 1.6 | 1.6 | 0.00 | 0.00 | 0.28 | 97 | 1015.0 |
| 20260504172733 | 25 | 17 | 0.0 | 0.0 | 0.00 | 0.00 | 0.28 | 96 | 1015.0 |
| 20260504172235 | 25 | 13 | 3.2 | 4.8 | 0.00 | 0.00 | 0.28 | 96 | 1015.0 |
| 20260504171734 | 25 | 107 | 4.8 | 4.8 | 0.00 | 0.00 | 0.28 | 97 | 1015.0 |
| 20260504171233 | 25 | 227 | 1.6 | 1.6 | 0.00 | 0.00 | 0.28 | 97 | 1015.0 |
| 20260504170735 | 25 | 89 | 0.0 | 4.8 | 0.00 | 0.00 | 0.28 | 97 | 1015.0 |
| 20260504170234 | 25 | 50 | 1.6 | 1.6 | 0.00 | 0.00 | 0.28 | 97 | 1015.0 |
| 20260504160234 | 24 | 325 | 0.0 | 1.6 | 0.00 | 0.00 | 0.28 | 98 | 1016.0 |
| 20260504150733 | 23 | 239 | 0.0 | 4.8 | 0.00 | 0.00 | 0.28 | 99 | 1016.0 |
| 20260504150235 | 23 | 129 | 0.0 | 3.2 | 0.00 | 0.00 | 0.28 | 99 | 1016.0 |
| 20260504141236 | 23 | 341 | 0.0 | 4.8 | 0.13 | 0.00 | 0.25 | 99 | 1016.0 |
| 20260504140737 | 23 | 38 | 0.0 | 4.8 | 0.13 | 0.00 | 0.23 | 99 | 1016.0 |
| 20260504140238 | 23 | 127 | 1.6 | 3.2 | 0.13 | 0.00 | 0.23 | 99 | 1016.0 |
| 20260504130733 | 22 | 8 | 3.2 | 8.0 | 0.13 | 0.00 | 0.18 | 99 | 1015.0 |
| 20260504130236 | 22 | 338 | 3.2 | 4.8 | 0.18 | 0.00 | 0.18 | 99 | 1015.0 |
| 20260504120234 | 22 | 54 | 0.0 | 3.2 | 0.00 | 0.00 | 0.15 | 99 | 1014.0 |
| 20260504110234 | 22 | 18 | 0.0 | 3.2 | 0.00 | 0.00 | 0.15 | 99 | 1014.0 |
| 20260504100234 | 22 | 347 | 1.6 | 4.8 | 0.36 | 0.00 | 0.15 | 99 | 1013.0 |
| 20260504081735 | 23 | 323 | 0.0 | 3.2 | 0.00 | 0.00 | 0.08 | 99 | 1013.0 |
| 20260504081234 | 23 | 156 | 0.0 | 1.6 | 0.00 | 0.00 | 0.08 | 99 | 1013.0 |
| 20260504080733 | 23 | 111 | 1.6 | 3.2 | 0.00 | 0.00 | 0.08 | 99 | 1013.0 |
| 20260504080233 | 23 | 324 | 0.0 | 3.2 | 0.00 | 0.00 | 0.08 | 99 | 1013.0 |
| 20260504070233 | 23 | 265 | 0.0 | 4.8 | 0.00 | 0.00 | 0.03 | 99 | 1013.0 |
| 20260504060235 | 23 | 291 | 0.0 | 1.6 | 0.00 | 0.00 | 0.00 | 99 | 1014.0 |
| 20260504050734 | 23 | 279 | 0.0 | 3.2 | 0.13 | 0.00 | 0.00 | 99 | 1014.0 |
| 20260504050234 | 23 | 309 | 0.0 | 3.2 | 0.13 | 0.00 | 0.00 | 99 | 1014.0 |
| 20260504045734 | 23 | 212 | 0.0 | 8.0 | 0.66 | 0.00 | 0.76 | 99 | 1014.0 |
| 20260504045233 | 23 | 162 | 4.8 | 8.0 | 0.66 | 0.00 | 0.74 | 99 | 1014.0 |
| 20260504044733 | 23 | 216 | 8.0 | 11.3 | 0.00 | 0.00 | 0.64 | 99 | 1015.0 |
| 20260504044234 | 23 | 177 | 8.0 | 8.0 | 0.53 | 0.00 | 0.64 | 99 | 1014.0 |
| 20260504043733 | 24 | 98 | 3.2 | 6.4 | 0.53 | 0.00 | 0.64 | 99 | 1014.0 |
| 20260504043234 | 23 | 155 | 6.4 | 8.0 | 0.00 | 0.00 | 0.53 | 99 | 1014.0 |
| 20260504042733 | 23 | 143 | 3.2 | 3.2 | 0.00 | 0.00 | 0.53 | 99 | 1014.0 |
| 20260504042233 | 23 | 57 | 0.0 | 0.0 | 0.00 | 0.00 | 0.53 | 99 | 1014.0 |
| 20260504041733 | 23 | 119 | 0.0 | 0.0 | 0.00 | 0.00 | 0.53 | 99 | 1014.0 |
| 20260504041233 | 23 | 56 | 0.0 | 0.0 | 0.00 | 0.00 | 0.53 | 99 | 1014.0 |
| 20260504040733 | 23 | 40 | 0.0 | 1.6 | 0.00 | 0.00 | 0.53 | 99 | 1014.0 |
| 20260504040233 | 23 | 52 | 0.0 | 0.0 | 0.00 | 0.00 | 0.53 | 99 | 1014.0 |
| 20260504035734 | 23 | 145 | 0.0 | 1.6 | 0.00 | 0.00 | 0.53 | 99 | 1014.0 |
| 20260504035233 | 23 | 123 | 0.0 | 0.0 | 0.00 | 0.00 | 0.53 | 99 | 1014.0 |
| 20260504034733 | 23 | 146 | 0.0 | 3.2 | 0.00 | 0.00 | 0.53 | 99 | 1014.0 |
| 20260504034233 | 23 | 193 | 0.0 | 3.2 | 0.00 | 0.00 | 0.53 | 99 | 1015.0 |
| 20260504033733 | 23 | 134 | 3.2 | 4.8 | 0.00 | 0.00 | 0.53 | 99 | 1014.0 |
| 20260504033233 | 23 | 148 | 3.2 | 4.8 | 0.00 | 0.00 | 0.53 | 99 | 1014.0 |
| 20260504032733 | 23 | 121 | 3.2 | 4.8 | 0.00 | 0.00 | 0.53 | 99 | 1014.0 |
| 20260504032233 | 23 | 126 | 0.0 | 1.6 | 0.00 | 0.00 | 0.53 | 99 | 1015.0 |
| 20260504031734 | 23 | 71 | 0.0 | 1.6 | 0.00 | 0.00 | 0.53 | 99 | 1014.0 |
| 20260504031234 | 23 | 126 | 0.0 | 3.2 | 0.00 | 0.00 | 0.53 | 98 | 1014.0 |
| 20260504030734 | 23 | 150 | 0.0 | 1.6 | 0.00 | 0.00 | 0.53 | 98 | 1014.0 |
| 20260504030233 | 23 | 171 | 0.0 | 4.8 | 0.00 | 0.00 | 0.53 | 98 | 1014.0 |
| 20260504025733 | 23 | 231 | 0.0 | 3.2 | 0.00 | 0.00 | 0.53 | 98 | 1014.0 |
| 20260504025233 | 23 | 83 | 0.0 | 1.6 | 0.00 | 0.00 | 0.53 | 98 | 1014.0 |
| 20260504024734 | 23 | 128 | 0.0 | 0.0 | 0.00 | 0.00 | 0.53 | 98 | 1014.0 |
| 20260504024233 | 24 | 131 | 0.0 | 1.6 | 0.00 | 0.00 | 0.53 | 98 | 1014.0 |
| 20260504023733 | 24 | 301 | 0.0 | 0.0 | 0.00 | 0.00 | 0.53 | 98 | 1014.0 |
| 20260504023234 | 24 | 25 | 0.0 | 0.0 | 0.00 | 0.00 | 0.53 | 98 | 1014.0 |
| 20260504022733 | 24 | 60 | 0.0 | 1.6 | 0.00 | 0.00 | 0.53 | 98 | 1014.0 |
| 20260504022233 | 24 | 10 | 0.0 | 1.6 | 0.00 | 0.00 | 0.53 | 98 | 1014.0 |